Location: Ferques
(50.8300°N, 1.7599°E)
Time: 21:28:39
(UTC+00:00)

Landsat 5 - Pass Details

Date: 19 May 2025
Orbit: 510 x 610 km, 98.1° (Epoch: 18 June)

Event Time Altitude Azimuth Distance (km) Brightness Sun altitude
Rises 23:28:03 0° 10° (N) 2,809 8.4 -19.0°
Reaches altitude 10° 23:30:13 10° 6° (N) 1,920 7.3 -19.1°
Maximum altitude 23:34:18 54° 289° (WNW) 731 4.0 -19.1°
Enters shadow 23:36:02 31° 228° (SW) 1,061 4.4 -19.1°
